SUNNYSIDE Weather Reports


Display with metric or nautical units.
time (UTC)temp
F
wind
direction
speed
MPH
gust
MPH
rain 1hr
in
rain 24hr
in
rain mn
in
humidity
%
barometer
mb
20260831112039 61 232 6.0 12.0 0.00 1.95 1.40 68 975.6
20260831111551 61 360 7.0 11.0 0.00 1.95 1.40 68 975.5
20260831111037 61 360 5.0 10.0 0.00 1.95 1.40 68 975.5
20260831110538 62 229 5.0 10.0 0.00 1.95 1.40 68 975.4
20260831110045 62 227 6.0 11.0 0.00 1.95 1.40 69 975.4
20260831105536 62 225 6.0 12.0 0.00 1.95 1.40 68 975.4
20260831105035 62 235 7.0 12.0 0.00 1.95 1.40 68 975.3
20260831104549 62 244 6.0 8.0 0.00 1.95 1.40 68 975.2
20260831104036 62 233 5.0 10.0 0.00 1.95 1.40 68 975.1
20260831103535 62 240 5.0 10.0 0.00 1.95 1.40 68 975.1
20260831103036 63 226 5.0 11.0 0.00 1.95 1.40 68 975.1
20260831102532 63 229 6.0 12.0 0.00 1.95 1.40 69 975.1
20260831102032 63 234 8.0 12.0 0.00 1.95 1.40 69 975.0
20260831101534 63 254 8.0 12.0 0.00 1.95 1.40 69 975.0
20260831101030 63 239 6.0 10.0 0.00 1.95 1.40 69 974.9
20260831100529 63 225 4.0 10.0 0.00 1.95 1.40 69 975.0
20260831100028 63 234 3.0 8.0 0.00 1.95 1.40 69 975.1
20260831095527 63 228 5.0 8.0 0.00 1.95 1.40 69 975.0
20260831095030 63 232 5.0 8.0 0.00 1.95 1.40 69 974.9
20260831094530 63 230 4.0 8.0 0.00 1.95 1.40 69 974.9
20260831094026 63 221 3.0 8.0 0.00 1.95 1.40 69 974.8
20260831093526 64 234 5.0 10.0 0.00 1.95 1.40 69 974.8
20260831093037 64 241 4.0 9.0 0.00 1.95 1.40 69 974.7
20260831092524 64 231 5.0 8.0 0.00 1.95 1.40 69 974.8
20260831092028 64 233 3.0 7.0 0.00 1.95 1.40 69 974.9
20260831091524 64 240 1.0 7.0 0.00 1.95 1.40 69 974.9
20260831091024 64 227 2.0 8.0 0.00 1.95 1.40 69 975.0
20260831090523 64 232 2.0 8.0 0.00 1.95 1.40 69 975.0
20260831090026 64 230 4.0 10.0 0.00 1.95 1.40 69 975.0
20260831085524 64 240 5.0 10.0 0.00 1.95 1.40 69 974.9
20260831085023 64 225 6.0 11.0 0.00 1.95 1.40 69 975.0
20260831084523 64 227 4.0 9.0 0.00 1.95 1.40 69 975.0
20260831084022 64 232 4.0 8.0 0.00 1.95 1.40 69 974.9
20260831083522 64 225 4.0 8.0 0.00 1.95 1.40 69 974.9
20260831083023 65 232 3.0 8.0 0.00 1.95 1.40 69 974.9
20260831082523 65 225 4.0 7.0 0.00 1.95 1.40 69 974.8
20260831082025 65 219 2.0 8.0 0.00 1.95 1.40 69 974.7
20260831081522 65 232 5.0 10.0 0.00 1.95 1.40 69 974.8
20260831081021 65 223 5.0 10.0 0.00 1.95 1.40 69 974.8
20260831080521 65 240 2.0 6.0 0.00 1.95 1.40 69 974.9
20260831080024 65 209 2.0 5.0 0.00 1.95 1.40 69 974.8
20260831075520 64 196 0.0 3.0 0.00 1.95 1.40 69 974.8
20260831075020 64 192 0.0 3.0 0.00 1.95 1.40 69 974.9
20260831074521 64 185 0.0 3.0 0.00 1.95 1.40 69 974.9
20260831074020 64 202 0.0 4.0 0.00 1.95 1.40 69 974.7
20260831073520 64 142 0.0 4.0 0.00 1.95 1.40 69 974.7
20260831073020 64 196 2.0 4.0 0.00 1.95 1.40 69 974.6
20260831072520 64 190 1.0 3.0 0.00 1.95 1.40 69 974.7
20260831072019 64 193 1.0 4.0 0.01 1.95 1.40 69 974.6
20260831071619 64 196 2.0 4.0 0.01 1.95 1.40 69 974.6
20260831071018 64 194 2.0 4.0 0.03 1.95 1.40 69 974.7
20260831070520 64 192 1.0 4.0 0.05 1.95 1.40 69 974.7
20260831070018 64 209 1.0 3.0 0.07 1.95 1.40 69 974.6
20260831065521 64 170 1.0 2.0 0.08 1.95 1.40 69 974.5
20260831065016 64 167 0.0 2.0 0.08 1.95 1.40 69 974.4
20260831064517 64 171 0.0 5.0 0.09 1.95 1.40 69 974.5
20260831064018 64 123 1.0 7.0 0.10 1.95 1.40 69 974.3
20260831063516 64 143 2.0 7.0 0.12 1.95 1.40 69 974.3
20260831063016 64 102 3.0 7.0 0.16 1.95 1.40 69 974.3
20260831062517 64 134 3.0 7.0 0.28 1.95 1.40 68 974.4
20260831062015 64 150 1.0 7.0 0.44 1.94 1.39 68 973.7
20260831061514 64 98 2.0 7.0 0.60 1.94 1.39 68 973.1
20260831061011 65 96 0.0 3.0 0.95 1.91 1.36 68 974.0
20260831060511 65 96 0.0 4.0 1.23 1.90 1.35 68 974.0
20260831060009 65 96 1.0 4.0 1.33 1.88 1.33 68 974.1
20260831055508 65 138 0.0 5.0 1.41 1.87 1.32 68 974.5
20260831055007 65 360 2.0 5.0 1.56 1.87 1.32 68 974.8
20260831054506 65 140 3.0 7.0 1.70 1.86 1.31 67 975.0
20260831054008 65 114 2.0 8.0 1.84 1.85 1.30 67 975.3
20260831053509 65 194 2.0 16.0 1.83 1.83 1.28 67 975.6
20260831053011 65 219 2.0 16.0 1.77 1.77 1.22 67 975.9
20260831052503 66 217 6.0 11.0 1.63 1.63 1.08 66 976.3
20260831052004 67 205 5.0 12.0 1.47 1.47 0.92 66 977.1
20260831051501 67 123 6.0 13.0 1.25 1.25 0.70 65 977.2
20260831051101 67 167 7.0 13.0 1.01 1.01 0.46 65 976.9
20260831050559 67 150 2.0 13.0 0.69 0.69 0.14 63 975.6
20260831050056 67 144 9.0 13.0 0.56 0.56 0.02 61 975.0
20260831045556 68 108 7.0 12.0 0.47 0.47 0.47 58 975.4
20260831045059 68 106 5.0 12.0 0.33 0.33 0.33 57 975.2
20260831044613 69 105 6.0 11.0 0.19 0.19 0.19 55 975.3
20260831044056 69 151 4.0 12.0 0.02 0.02 0.02 54 975.3
20260831043556 70 123 6.0 14.0 0.00 0.00 0.00 54 975.2
20260831043054 70 126 7.0 14.0 0.00 0.00 0.00 53 975.3
20260831042557 70 121 7.0 12.0 0.00 0.00 0.00 53 975.2
20260831042057 70 163 8.0 12.0 0.00 0.00 0.00 53 975.4
20260831041600 70 360 7.0 12.0 0.00 0.00 0.00 53 975.4
20260831041053 70 101 7.0 13.0 0.00 0.00 0.00 53 975.4
20260831040552 70 91 7.0 13.0 0.00 0.00 0.00 53 975.6
20260831040050 71 158 7.0 13.0 0.00 0.00 0.00 53 975.9
20260831035550 71 112 6.0 12.0 0.00 0.00 0.00 53 976.0
20260831035050 71 105 7.0 15.0 0.00 0.00 0.00 52 976.0
20260831034555 71 183 9.0 15.0 0.00 0.00 0.00 52 976.1
20260831034050 71 140 8.0 16.0 0.00 0.00 0.00 52 976.2
20260831033550 71 127 8.0 16.0 0.00 0.00 0.00 52 976.2
20260831033053 71 100 10.0 19.0 0.00 0.00 0.00 52 976.2
20260831032550 71 113 10.0 19.0 0.00 0.00 0.00 52 976.1
20260831032050 71 106 8.0 14.0 0.00 0.00 0.00 52 976.1
20260831031549 71 127 8.0 15.0 0.00 0.00 0.00 52 976.0
20260831031047 72 126 7.0 14.0 0.00 0.00 0.00 52 976.2
20260831030547 72 105 8.0 15.0 0.00 0.00 0.00 51 976.3
20260831030047 72 98 8.0 15.0 0.00 0.00 0.00 51 976.3
20260831025547 72 128 9.0 14.0 0.00 0.00 0.00 52 976.3
20260831025046 72 128 6.0 11.0 0.00 0.00 0.00 52 976.4
20260831024546 71 114 5.0 11.0 0.00 0.00 0.00 52 976.6
20260831024047 71 126 5.0 11.0 0.00 0.00 0.00 52 976.7
20260831023546 71 144 6.0 10.0 0.00 0.00 0.00 52 976.7
20260831023046 71 360 6.0 10.0 0.00 0.00 0.00 52 976.7
20260831022546 71 101 5.0 9.0 0.00 0.00 0.00 52 976.8
20260831022046 71 109 5.0 8.0 0.00 0.00 0.00 52 976.8
20260831021546 71 113 4.0 8.0 0.00 0.00 0.00 52 976.7
20260831021045 71 92 2.0 7.0 0.00 0.00 0.00 52 976.7
20260831020544 72 146 3.0 9.0 0.00 0.00 0.00 52 976.7
20260831020045 72 360 3.0 9.0 0.00 0.00 0.00 52 976.5
20260831015544 72 134 4.0 10.0 0.00 0.00 0.00 52 976.6
20260831015044 72 115 3.0 7.0 0.00 0.00 0.00 52 976.5
20260831014544 72 100 4.0 7.0 0.00 0.00 0.00 52 976.5
20260831014045 72 103 4.0 7.0 0.00 0.00 0.00 52 976.5
20260831013545 72 98 5.0 8.0 0.00 0.00 0.00 52 976.6
20260831013045 72 144 3.0 8.0 0.00 0.00 0.00 52 976.6
20260831012545 73 118 3.0 9.0 0.00 0.00 0.00 52 976.4
20260831012043 73 107 2.0 9.0 0.00 0.00 0.00 53 976.4
20260831011545 73 360 3.0 6.0 0.00 0.00 0.00 53 976.4
20260831011142 73 114 3.0 6.0 0.00 0.00 0.00 54 976.5
20260831010542 74 132 2.0 6.0 0.00 0.00 0.00 54 976.4
20260831010045 75 104 1.0 7.0 0.00 0.00 0.00 54 976.4
20260831005541 75 126 2.0 10.0 0.00 0.00 0.00 53 976.5
20260831005043 75 146 2.0 10.0 0.00 0.00 0.00 53 976.7
20260831004541 75 96 3.0 7.0 0.00 0.00 0.00 53 976.8
20260831004044 76 105 3.0 9.0 0.00 0.00 0.00 53 976.9
20260831003541 76 360 2.0 9.0 0.00 0.00 0.00 53 976.8
20260831003041 76 109 3.0 8.0 0.00 0.00 0.00 53 976.9
20260831002540 76 90 3.0 8.0 0.00 0.00 0.00 53 976.9
20260831002041 77 98 4.0 8.0 0.00 0.00 0.00 52 976.9
20260831001541 77 85 3.0 7.0 0.00 0.00 0.00 52 977.0
20260831001039 77 88 2.0 9.0 0.00 0.00 0.00 52 976.9
20260831000540 77 186 4.0 9.0 0.00 0.00 0.00 52 977.0
20260831000041 78 103 3.0 10.0 0.00 0.00 0.00 51 977.0
20260830235544 78 82 3.0 8.0 0.00 0.00 0.00 51 976.8
20260830235039 78 90 3.0 7.0 0.00 0.00 0.00 51 976.8
20260830234554 78 90 3.0 8.0 0.00 0.00 0.00 50 976.9
20260830234039 78 103 2.0 10.0 0.00 0.00 0.00 50 977.1
20260830233539 79 87 4.0 11.0 0.00 0.00 0.00 49 977.1
20260830233039 79 94 3.0 9.0 0.00 0.00 0.00 49 977.0
20260830232539 79 98 3.0 9.0 0.00 0.00 0.00 49 976.9
20260830232039 79 98 3.0 9.0 0.00 0.00 0.00 49 976.9
20260830231538 79 84 3.0 9.0 0.00 0.00 0.00 49 976.9
20260830231037 79 109 3.0 9.0 0.00 0.00 0.00 48 976.9
20260830230537 79 105 2.0 10.0 0.00 0.00 0.00 49 976.9
20260830230037 79 102 5.0 12.0 0.00 0.00 0.00 48 976.8
20260830225537 80 106 6.0 12.0 0.00 0.00 0.00 47 976.7
20260830225037 79 183 3.0 10.0 0.00 0.00 0.00 48 976.6
20260830224536 79 116 4.0 10.0 0.00 0.00 0.00 48 976.9
20260830224035 79 124 5.0 11.0 0.00 0.00 0.00 47 977.0
20260830223534 79 117 6.0 11.0 0.00 0.00 0.00 47 977.2
20260830223038 79 84 5.0 9.0 0.00 0.00 0.00 48 977.4
20260830222533 79 131 3.0 9.0 0.00 0.00 0.00 48 977.5
20260830222035 80 113 2.0 6.0 0.00 0.00 0.00 48 977.6
20260830221536 80 91 2.0 7.0 0.00 0.00 0.00 47 977.7
20260830221033 80 95 3.0 11.0 0.00 0.00 0.00 46 977.8
20260830220530 80 88 4.0 11.0 0.00 0.00 0.00 46 977.9
20260830220030 81 114 4.0 11.0 0.00 0.00 0.00 46 978.0
20260830215529 81 150 4.0 14.0 0.00 0.00 0.00 45 978.1
20260830215033 81 159 8.0 13.0 0.00 0.00 0.00 45 978.1
20260830214529 80 111 8.0 15.0 0.00 0.00 0.00 45 978.3
20260830214028 80 100 9.0 15.0 0.00 0.00 0.00 46 978.4
20260830213527 80 104 7.0 13.0 0.00 0.00 0.00 45 978.3
20260830213027 80 360 6.0 15.0 0.00 0.00 0.00 45 978.4
20260830212527 81 86 8.0 15.0 0.00 0.00 0.00 44 978.3
20260830212026 81 86 9.0 15.0 0.00 0.00 0.00 44 978.4
20260830211527 80 132 8.0 15.0 0.00 0.00 0.00 43 978.6
20260830211026 80 91 7.0 18.0 0.00 0.00 0.00 44 978.7
20260830210525 81 97 10.0 18.0 0.00 0.00 0.00 42 978.6
20260830210024 81 93 8.0 17.0 0.00 0.00 0.00 44 978.7
20260830205523 81 90 9.0 17.0 0.00 0.00 0.00 42 978.8
20260830205024 81 96 7.0 16.0 0.00 0.00 0.00 43 978.9
20260830204522 81 108 9.0 15.0 0.00 0.00 0.00 42 978.9
20260830204022 82 101 8.0 16.0 0.00 0.00 0.00 42 979.1
20260830203521 82 109 8.0 16.0 0.00 0.00 0.00 42 979.0
20260830203041 82 116 10.0 16.0 0.00 0.00 0.00 43 979.0
20260830202520 82 104 9.0 15.0 0.00 0.00 0.00 45 979.0
20260830202019 81 102 8.0 15.0 0.00 0.00 0.00 47 979.1
20260830201518 81 107 8.0 15.0 0.00 0.00 0.00 46 979.2
20260830201017 80 102 8.0 13.0 0.00 0.00 0.00 46 979.2
20260830200516 80 115 8.0 13.0 0.00 0.00 0.00 46 979.3
20260830200019 80 98 7.0 12.0 0.00 0.00 0.00 46 979.4
20260830195516 80 107 6.0 16.0 0.00 0.00 0.00 47 979.4
20260830195016 80 102 9.0 16.0 0.00 0.00 0.00 46 979.5
20260830194516 80 98 9.0 14.0 0.00 0.00 0.00 45 979.5
20260830194016 81 69 9.0 17.0 0.00 0.00 0.00 44 979.5
20260830193515 81 126 8.0 17.0 0.00 0.00 0.00 45 979.5
20260830193015 81 91 10.0 14.0 0.00 0.00 0.00 45 979.5
20260830192515 81 360 8.0 16.0 0.00 0.00 0.00 45 979.6
20260830192015 81 95 8.0 16.0 0.00 0.00 0.00 45 979.6
20260830191515 81 360 8.0 19.0 0.00 0.00 0.00 45 979.6
20260830191014 81 141 10.0 19.0 0.00 0.00 0.00 45 979.6
20260830190513 81 135 9.0 17.0 0.00 0.00 0.00 46 979.6
20260830190024 81 109 9.0 17.0 0.00 0.00 0.00 46 979.5
20260830185513 81 124 8.0 16.0 0.00 0.00 0.00 47 979.5
20260830185013 82 107 10.0 17.0 0.00 0.00 0.00 45 979.7
20260830184522 82 115 8.0 15.0 0.00 0.00 0.00 48 979.6
20260830184011 81 360 7.0 14.0 0.00 0.00 0.00 47 979.8
20260830183510 82 114 6.0 11.0 0.00 0.00 0.00 48 979.7
20260830183019 81 360 6.0 14.0 0.00 0.00 0.00 47 979.8
20260830182511 81 96 5.0 14.0 0.00 0.00 0.00 49 979.8
20260830182008 80 100 3.0 12.0 0.00 0.00 0.00 50 979.8
20260830181507 80 115 9.0 12.0 0.00 0.00 0.00 49 979.9
20260830181005 80 85 7.0 12.0 0.00 0.00 0.00 50 979.9
20260830180505 80 78 5.0 13.0 0.00 0.00 0.00 50 979.9
20260830180004 80 80 6.0 17.0 0.00 0.00 0.00 51 980.0
20260830175503 79 360 11.0 17.0 0.00 0.00 0.00 41 980.1
20260830175002 79 102 8.0 16.0 0.00 0.00 0.00 42 980.2
20260830174502 79 360 8.0 16.0 0.00 0.00 0.00 43 980.2
20260830174100 79 97 11.0 16.0 0.00 0.00 0.00 43 980.2
20260830173559 78 103 6.0 13.0 0.00 0.00 0.00 46 980.1
20260830173114 78 96 9.0 14.0 0.00 0.00 0.00 45 980.3
20260830172557 78 136 5.0 14.0 0.00 0.00 0.00 45 980.4
20260830172057 78 100 4.0 11.0 0.00 0.00 0.00 46 980.5
20260830171601 78 95 7.0 14.0 0.00 0.00 0.00 45 980.5
20260830171056 78 94 6.0 16.0 0.00 0.00 0.00 45 980.7
20260830170556 79 93 7.0 14.0 0.00 0.00 0.00 45 980.7
20260830170056 79 104 4.0 12.0 0.00 0.00 0.00 46 980.7
20260830165555 79 114 5.0 12.0 0.00 0.00 0.00 45 980.7
20260830165055 78 97 5.0 13.0 0.00 0.00 0.00 46 980.7
20260830164553 78 98 7.0 13.0 0.00 0.00 0.00 46 980.6
20260830164056 78 94 5.0 16.0 0.00 0.00 0.00 46 980.8
20260830163554 78 94 6.0 11.0 0.00 0.00 0.00 47 980.9
20260830163052 78 136 5.0 16.0 0.00 0.00 0.00 48 981.0
20260830162552 78 80 10.0 16.0 0.00 0.00 0.00 46 981.1
20260830162051 77 90 9.0 16.0 0.00 0.00 0.00 48 981.0
20260830161550 77 115 3.0 11.0 0.00 0.00 0.00 50 980.9
20260830161051 77 134 6.0 11.0 0.00 0.00 0.00 50 981.0
20260830160548 77 360 6.0 13.0 0.00 0.00 0.00 49 981.0
20260830160047 77 145 3.0 13.0 0.00 0.00 0.00 51 981.0
20260830155546 76 84 6.0 13.0 0.00 0.00 0.00 50 981.1
20260830155049 76 140 6.0 11.0 0.00 0.00 0.00 52 981.2
20260830154545 76 104 5.0 10.0 0.00 0.00 0.00 51 981.2
20260830154041 75 116 5.0 10.0 0.00 0.00 0.00 53 981.3
20260830153540 74 360 5.0 10.0 0.00 0.00 0.00 54 981.6
20260830153040 74 134 6.0 10.0 0.00 0.00 0.00 55 981.7
20260830152539 74 104 5.0 10.0 0.00 0.00 0.00 55 981.5
20260830152039 74 360 5.0 11.0 0.00 0.00 0.00 56 981.4
20260830151537 73 155 6.0 11.0 0.00 0.00 0.00 57 981.4
20260830151036 73 128 5.0 8.0 0.00 0.00 0.00 59 981.6
20260830150534 72 129 2.0 7.0 0.00 0.00 0.00 61 981.7
20260830150036 72 145 2.0 10.0 0.00 0.00 0.00 61 981.6
20260830145532 71 100 4.0 10.0 0.00 0.00 0.00 62 981.6
20260830145031 71 124 4.0 9.0 0.00 0.00 0.00 63 981.7
20260830144535 70 130 3.0 9.0 0.00 0.00 0.00 63 981.9
20260830144027 70 115 5.0 8.0 0.00 0.00 0.00 64 981.8
20260830143526 70 87 3.0 8.0 0.00 0.00 0.00 65 981.7
20260830143035 69 123 3.0 7.0 0.00 0.00 0.00 66 981.6
20260830142524 69 143 2.0 7.0 0.00 0.00 0.00 66 981.6
20260830142022 68 128 3.0 7.0 0.00 0.00 0.00 67 981.6
20260830141521 68 113 2.0 7.0 0.00 0.00 0.00 67 981.5
20260830141021 68 144 2.0 7.0 0.00 0.00 0.00 67 981.5
20260830140517 67 360 2.0 7.0 0.00 0.00 0.00 68 981.4
20260830140017 67 360 3.0 7.0 0.00 0.00 0.00 68 981.6
20260830135516 67 128 3.0 7.0 0.00 0.00 0.00 69 981.5
20260830135015 66 158 2.0 5.0 0.00 0.00 0.00 69 981.4
20260830134522 66 92 2.0 6.0 0.00 0.00 0.00 69 981.4
20260830134015 66 98 3.0 6.0 0.00 0.00 0.00 69 981.5
20260830133514 65 129 2.0 3.0 0.00 0.00 0.00 69 981.4
20260830133013 65 95 1.0 4.0 0.00 0.00 0.00 69 981.5
20260830132513 65 132 1.0 6.0 0.00 0.00 0.00 69 981.5
20260830132012 64 360 2.0 6.0 0.00 0.00 0.00 69 981.6
20260830131527 64 103 1.0 6.0 0.00 0.00 0.00 69 981.7
20260830131012 64 128 2.0 6.0 0.00 0.00 0.00 69 981.7
20260830130512 64 105 2.0 6.0 0.00 0.00 0.00 69 981.6
20260830130011 64 110 2.0 6.0 0.00 0.00 0.00 69 981.7
20260830125511 63 126 1.0 4.0 0.00 0.00 0.00 70 981.6
20260830125011 62 86 0.0 2.0 0.00 0.00 0.00 70 981.7
20260830124511 61 83 0.0 1.0 0.00 0.00 0.00 70 981.5
20260830124013 61 83 0.0 1.0 0.00 0.00 0.00 69 981.7
20260830123511 60 83 0.0 0.0 0.00 0.00 0.00 69 981.6
20260830123010 60 83 0.0 0.0 0.00 0.00 0.00 69 981.6
20260830122510 60 83 0.0 0.0 0.00 0.00 0.00 69 981.5
20260830122010 60 83 0.0 0.0 0.00 0.00 0.00 69 981.5
20260830121510 60 83 0.0 2.0 0.00 0.00 0.00 69 981.4
20260830121009 60 83 0.0 2.0 0.00 0.00 0.00 69 981.5
20260830120509 60 83 0.0 1.0 0.00 0.00 0.00 69 981.5
20260830120011 60 83 0.0 1.0 0.00 0.00 0.00 69 981.4
20260830115508 60 83 0.0 1.0 0.00 0.00 0.00 69 981.5
20260830115008 60 83 0.0 0.0 0.00 0.00 0.00 69 981.4
20260830114508 60 83 0.0 1.0 0.00 0.00 0.00 69 981.3
20260830114006 60 83 0.0 1.0 0.00 0.00 0.00 69 981.3
20260830113505 61 83 0.0 1.0 0.00 0.00 0.00 69 981.2
20260830113004 61 83 0.0 0.0 0.00 0.00 0.00 69 981.2
20260830112504 61 83 0.0 0.0 0.00 0.00 0.00 68 981.1